DW7199 Weather Reports


time (UTC)temp
F
wind
direction
speed
knots
gust
knots
rain 1hr
in
rain 24hr
in
rain mn
in
humidity
%
barometer
mb
20260906051533 76 121 0.0 0.0 0.00 0.00 0.00 89 1010.7
20260906050033 76 121 0.0 0.0 0.00 0.00 0.00 88 1010.6
20260906044534 77 121 0.0 0.0 0.00 0.00 0.00 88 1010.6
20260906043031 77 121 0.0 0.0 0.00 0.00 0.00 88 1010.5
20260906041530 77 121 0.0 0.0 0.00 0.00 0.00 88 1010.6
20260906040034 77 121 0.0 0.0 0.00 0.00 0.00 87 1010.5
20260906034531 78 121 0.0 0.0 0.00 0.00 0.00 87 1010.5
20260906033029 79 121 0.0 0.0 0.00 0.00 0.00 85 1010.5
20260906031543 79 121 0.0 0.0 0.00 0.00 0.00 84 1010.6
20260906030028 79 121 0.0 0.0 0.00 0.00 0.00 85 1010.5
20260906024528 80 121 0.0 0.0 0.00 0.00 0.00 82 1010.5
20260906023028 81 121 0.0 0.0 0.00 0.00 0.00 83 1010.3
20260906021527 81 121 0.0 0.0 0.00 0.00 0.00 82 1010.1
20260906020031 82 121 0.0 0.0 0.00 0.00 0.00 80 1010.0
20260906014530 83 121 0.0 0.0 0.00 0.00 0.00 79 1009.8
20260906013025 85 121 0.0 0.0 0.00 0.00 0.00 75 1009.7
20260906011525 86 121 0.0 0.0 0.00 0.00 0.00 72 1009.5
20260906010024 88 121 0.0 0.0 0.00 0.00 0.00 69 1009.4
20260906004524 89 121 0.0 0.0 0.00 0.00 0.00 67 1009.3
20260906003026 92 121 0.0 0.0 0.00 0.00 0.00 63 1009.3
20260906001523 94 121 0.0 0.0 0.00 0.00 0.00 61 1009.3
20260906000023 97 121 0.0 0.0 0.00 0.00 0.00 59 1009.3
20260905234522 99 178 0.0 0.0 0.00 0.00 0.00 58 1009.2
20260905233025 99 127 0.0 0.0 0.00 0.00 0.00 49 1009.4
20260905231520 99 127 0.0 1.7 0.00 0.00 0.00 47 1009.5
20260905230019 99 163 0.0 1.7 0.00 0.00 0.00 46 1009.3
20260905224518 100 109 0.0 3.5 0.00 0.00 0.00 45 1009.5
20260905223031 100 145 0.9 2.6 0.00 0.00 0.00 45 1009.6
20260905221534 101 141 0.9 3.5 0.00 0.00 0.00 44 1009.6
20260905220016 101 185 0.9 2.6 0.00 0.00 0.00 43 1009.5
20260905214515 100 129 0.0 3.5 0.00 0.00 0.00 44 1009.6
20260905213015 100 104 0.9 2.6 0.00 0.00 0.00 45 1009.8
20260905211533 102 118 0.9 7.0 0.00 0.00 0.00 42 1009.7
20260905210012 103 122 2.6 11.3 0.00 0.00 0.00 41 1009.8
20260905204511 102 14 0.0 2.6 0.00 0.00 0.00 39 1009.9
20260905203009 102 350 0.9 5.2 0.00 0.00 0.00 41 1010.1
20260905201507 102 8 3.5 7.8 0.00 0.00 0.00 41 1010.4
20260905200004 102 15 1.7 8.7 0.00 0.00 0.00 41 1010.6
20260905194502 101 13 3.5 5.2 0.00 0.00 0.00 41 1010.9
20260905193100 101 26 2.6 6.1 0.00 0.00 0.00 43 1011.0
20260905191557 101 11 1.7 6.1 0.00 0.00 0.00 41 1011.2
20260905190056 101 354 2.6 9.6 0.00 0.00 0.00 43 1011.4
20260905184603 100 346 0.9 5.2 0.00 0.00 0.00 42 1011.5
20260905183054 101 8 2.6 7.0 0.00 0.00 0.00 41 1011.7
20260905181551 100 15 2.6 7.8 0.00 0.00 0.00 43 1011.7
20260905180056 100 305 0.9 7.8 0.00 0.00 0.00 44 1011.9
20260905174556 100 11 2.6 8.7 0.00 0.00 0.00 44 1012.1
20260905173049 100 297 1.7 7.8 0.00 0.00 0.00 45 1012.2
20260905171559 99 71 1.7 6.1 0.00 0.00 0.00 47 1012.3
20260905170050 99 23 2.6 5.2 0.00 0.00 0.00 48 1012.6
20260905164547 99 328 1.7 4.3 0.00 0.00 0.00 50 1012.7
20260905163039 97 341 1.7 6.1 0.00 0.00 0.00 50 1012.9
20260905161541 97 58 2.6 5.2 0.00 0.00 0.00 50 1013.1
20260905160044 96 294 0.9 4.3 0.00 0.00 0.00 56 1013.1
20260905154548 95 342 1.7 5.2 0.00 0.00 0.00 58 1013.2
20260905153029 94 237 0.0 2.6 0.00 0.00 0.00 59 1013.2
20260905151529 93 325 0.9 2.6 0.00 0.00 0.00 63 1013.2
20260905150021 91 266 0.9 2.6 0.00 0.00 0.00 67 1013.3
20260905144528 89 279 0.0 2.6 0.00 0.00 0.00 70 1013.3
20260905143013 86 305 0.9 2.6 0.00 0.00 0.00 75 1013.2
20260905141509 84 60 0.0 0.0 0.00 0.00 0.00 81 1013.2
20260905140005 81 25 0.0 0.0 0.00 0.00 0.00 88 1013.1
20260905134611 78 147 0.0 0.0 0.00 0.00 0.00 93 1013.1
20260905133058 76 147 0.0 0.0 0.00 0.00 0.00 96 1013.0
20260905131602 75 147 0.0 0.0 0.00 0.00 0.00 96 1012.9
20260905130057 75 147 0.0 0.0 0.00 0.00 0.00 96 1013.0
20260905124556 74 147 0.0 0.0 0.00 0.00 0.00 95 1012.9
20260905123055 73 147 0.0 0.0 0.00 0.00 0.00 95 1012.8
20260905121553 73 147 0.0 0.0 0.00 0.00 0.00 95 1012.6
20260905120054 73 147 0.0 0.0 0.00 0.00 0.00 94 1012.6
20260905114607 73 147 0.0 0.0 0.00 0.00 0.00 94 1012.4
20260905113051 73 147 0.0 0.0 0.00 0.00 0.00 93 1012.2
20260905111602 73 147 0.0 0.0 0.00 0.00 0.00 94 1012.1
20260905110048 73 147 0.0 0.0 0.00 0.00 0.00 93 1012.0
20260905104551 73 147 0.0 0.0 0.00 0.00 0.00 92 1012.1
20260905103049 73 147 0.0 0.0 0.00 0.00 0.00 92 1012.3
20260905101545 74 147 0.0 0.0 0.00 0.00 0.00 93 1012.2
20260905100046 74 147 0.0 0.0 0.00 0.00 0.00 93 1012.1
20260905094558 74 147 0.0 0.0 0.00 0.00 0.00 92 1012.1
20260905093045 74 147 0.0 0.0 0.00 0.00 0.00 93 1012.1
20260905091547 74 147 0.0 0.0 0.00 0.00 0.00 92 1011.9
20260905090041 74 147 0.0 0.0 0.00 0.00 0.00 92 1011.9
20260905084544 74 147 0.0 0.0 0.00 0.00 0.00 91 1012.0
20260905083038 75 147 0.0 0.0 0.00 0.00 0.00 92 1012.0
20260905081537 75 147 0.0 0.0 0.00 0.00 0.00 92 1012.1
20260905080050 75 147 0.0 0.0 0.00 0.00 0.00 93 1012.1
20260905074536 75 147 0.0 0.0 0.00 0.00 0.00 93 1012.1
20260905073043 75 147 0.0 0.0 0.00 0.00 0.00 92 1012.1
20260905071534 75 147 0.0 0.0 0.00 0.00 0.00 91 1012.1
20260905070043 75 147 0.0 0.0 0.00 0.00 0.00 90 1012.1
20260905064531 76 147 0.0 0.0 0.00 0.00 0.00 90 1012.3
20260905063032 76 147 0.0 0.0 0.00 0.00 0.00 89 1012.3
20260905061547 76 147 0.0 0.0 0.00 0.00 0.00 89 1012.3
20260905060027 76 147 0.0 0.0 0.00 0.00 0.00 90 1012.2
20260905054526 77 147 0.0 0.0 0.00 0.00 0.00 89 1012.2
20260905053025 77 147 0.0 0.0 0.00 0.00 0.00 88 1012.2